Location: The Saddle
(36.8333°N, 80.3417°W)
Time: 02:51:52
(UTC-04:00)

A-11 Canister half - All Passes

Search period start: 21 July 2024 00:00
Search period end: 31 July 2024 00:00
Orbit: 1515 x 1684 km, 47.2° (Epoch: 20 July)

Date Brightness Start Highest point End Pass type
(mag) Time Alt. Az. Time Alt. Az. Time Alt. Az.
21 Jul - 07:53:36 10° SE 07:57:21 13° ESE 08:01:09 10° E daylight
21 Jul - 09:51:17 10° SSW 10:00:41 56° SE 10:10:24 10° ENE daylight
21 Jul - 11:55:57 10° WSW 12:05:45 63° NNW 12:15:51 10° ENE daylight
21 Jul - 14:02:46 10° WNW 14:12:24 47° N 14:22:07 10° ENE daylight
21 Jul - 16:08:47 10° WNW 16:18:57 68° NNE 16:29:02 10° ESE daylight
21 Jul - 18:14:14 10° WNW 18:23:54 51° SW 18:33:24 10° SSE daylight
21 Jul - 20:25:17 10° WSW 20:27:10 11° WSW 20:29:03 10° SW daylight
22 Jul - 07:31:58 10° SE 07:34:29 11° ESE 07:37:01 10° ESE daylight
22 Jul - 09:28:27 10° SSW 09:37:43 53° SE 09:47:20 10° ENE daylight
22 Jul - 11:32:52 10° WSW 11:42:40 66° NNW 11:52:47 10° ENE daylight
22 Jul - 13:39:40 10° WNW 13:49:16 46° N 13:58:59 10° ENE daylight
22 Jul - 15:45:45 10° WNW 15:55:53 65° NNE 16:05:57 10° ESE daylight
22 Jul - 17:51:09 10° WNW 18:00:56 54° SW 18:10:34 10° SSE daylight
22 Jul - 20:00:50 10° W 20:04:17 12° WSW 20:07:44 10° SW daylight
23 Jul - 09:05:37 10° SSW 09:14:46 49° SE 09:24:14 10° ENE daylight
23 Jul - 11:09:49 10° WSW 11:19:37 68° NNW 11:29:44 10° ENE daylight
23 Jul - 13:16:34 10° WNW 13:26:08 47° N 13:35:51 10° ENE daylight
23 Jul - 15:22:42 10° WNW 15:32:47 63° NNE 15:42:51 10° ESE daylight
23 Jul - 17:28:04 10° WNW 17:37:57 58° SW 17:47:41 10° SSE daylight
23 Jul - 19:36:56 10° W 19:41:24 14° WSW 19:45:50 10° SSW daylight
24 Jul - 08:42:49 10° SSW 08:51:49 46° SE 09:01:08 10° ENE daylight
24 Jul - 10:46:46 10° WSW 10:56:33 71° NNW 11:06:41 10° ENE daylight
24 Jul - 12:53:27 10° WNW 13:03:00 47° N 13:12:43 10° ENE daylight
24 Jul - 14:59:40 10° WNW 15:09:43 61° NNE 15:19:45 10° ESE daylight
24 Jul - 17:05:01 10° WNW 17:14:58 61° SW 17:24:48 10° SE daylight
24 Jul - 19:13:16 10° W 19:18:30 15° WSW 19:23:42 10° SSW daylight
25 Jul - 08:20:02 10° SSW 08:28:53 43° SE 08:38:01 10° ENE daylight
25 Jul - 10:23:45 10° WSW 10:33:30 73° NNW 10:43:38 10° ENE daylight
25 Jul - 12:30:22 10° WNW 12:39:53 47° N 12:49:36 10° ENE daylight
25 Jul - 14:36:38 10° WNW 14:46:37 59° NNE 14:56:38 10° E daylight
25 Jul - 16:41:57 10° WNW 16:51:59 65° SW 17:01:54 10° SE daylight
25 Jul - 18:49:45 10° W 18:55:36 17° WSW 19:01:26 10° SSW daylight
26 Jul - 07:57:16 10° SSW 08:05:57 40° SE 08:14:54 10° ENE daylight
26 Jul - 10:00:43 10° WSW 10:10:28 76° NNW 10:20:35 10° ENE daylight
26 Jul - 12:07:15 10° WNW 12:16:46 47° N 12:26:29 10° ENE daylight
26 Jul - 14:13:36 10° WNW 14:23:31 57° NNE 14:33:31 10° E daylight
26 Jul - 16:18:55 10° WNW 16:28:59 68° SW 16:38:58 10° SE daylight
26 Jul - 18:26:18 10° W 18:32:42 19° WSW 18:39:03 10° SSW daylight
27 Jul - 07:34:32 10° SSW 07:43:01 37° SE 07:51:47 10° ENE daylight
27 Jul - 09:37:42 10° WSW 09:47:25 79° NNW 09:57:32 10° ENE daylight
27 Jul - 11:44:09 10° W 11:53:38 48° N 12:03:21 10° ENE daylight
27 Jul - 13:50:33 10° WNW 14:00:25 56° NNE 14:10:24 10° E daylight
27 Jul - 15:55:53 10° WNW 16:05:59 72° SW 16:16:02 10° SE daylight
27 Jul - 18:02:56 10° W 18:09:47 21° SW 18:16:36 10° SSW daylight
28 Jul - 07:11:50 10° S 07:20:06 35° SE 07:28:38 10° ENE daylight
28 Jul - 09:14:42 10° WSW 09:24:24 83° NNW 09:34:29 10° ENE daylight
28 Jul - 11:21:03 10° W 11:30:31 48° N 11:40:15 10° ENE daylight
28 Jul - 13:27:30 10° WNW 13:37:19 54° NNE 13:47:16 10° E daylight
28 Jul - 15:32:50 10° WNW 15:42:58 76° SW 15:53:04 10° SE daylight
28 Jul - 17:39:36 10° W 17:46:52 23° SW 17:54:06 10° S daylight
29 Jul - 06:49:08 10° S 06:57:11 32° SE 07:05:27 10° ENE daylight
29 Jul - 08:51:43 10° WSW 09:01:22 86° NW 09:11:26 10° ENE daylight
29 Jul - 10:57:57 10° W 11:07:24 49° N 11:17:09 10° ENE daylight
29 Jul - 13:04:27 10° WNW 13:14:13 53° NNE 13:24:07 10° E daylight
29 Jul - 15:09:48 10° WNW 15:19:57 80° SW 15:30:06 10° SE daylight
29 Jul - 17:16:20 10° WNW 17:23:57 25° SW 17:31:32 10° S daylight
30 Jul - 06:26:29 10° S 06:34:16 30° SE 06:42:17 10° ENE daylight
30 Jul - 08:28:45 10° SW 08:38:22 90° NW 08:48:24 10° ENE daylight
30 Jul - 10:34:51 10° W 10:44:18 49° N 10:54:02 10° ENE daylight
30 Jul - 12:41:24 10° WNW 12:51:07 52° NNE 13:00:59 10° E daylight
30 Jul - 14:46:46 10° WNW 14:56:56 83° SW 15:07:07 10° SE daylight
30 Jul - 16:53:06 10° WNW 17:01:01 27° SW 17:08:56 10° S daylight
